[[{"header":{"parameterUnit":"m.s-1","parameterCategory":1,"la1":30.2991,"la2":30.254,"lo1":-89.0895,"lo2":-89.0444,"dy":0.0017,"dx":0.0017,"nx":28,"ny":28,"refTime":"2026-01-04T09:00:00:Z","depth":0,"parameterNumber":2,"parameterNumberName":"U-component_of_WINDS"},"data":[0,0,0,0,0,0,0,0,0,0,0,0,0,0,0,0,0,0,0,0,0,0,0,0,0,0,0,0,0,0,0,0,0,0,0,0,0,0,0,0,0,0,0,0,0,0,0,0,0,0,0,0,0,0,0,0,0,0,-2.0273,-2.0273,0,-2.0324,-2.0324,-2.0325,-2.0289,-2.0288,-2.0286,-2.0285,-2.0339,-2.0342,-2.0345,0,0,0,0,0,0,0,0,0,0,0,0,0,-2.0147,-2.0149,-2.0273,-2.0273,-2.0274,-2.0324,-2.0324,-2.0325,-2.029,-2.0288,-2.0286,-2.0284,-2.0338,-2.0341,-2.0345,0,0,0,0,0,0,0,0,0,0,0,0,0,-2.02,-2.015,-2.0273,-2.0262,-2.0262,-2.0323,-2.0324,-2.0325,-2.029,-2.0288,-2.0285,-2.0283,-2.0337,-2.0341,-2.0345,-2.042,0,0,-2.0359,-2.0361,0,0,0,0,0,0,0,0,-2.0197,-2.0205,-2.0263,-2.0263,-2.0263,-2.0298,-2.03,-2.0357,-2.0291,-2.028,-2.0285,-2.0282,-2.0327,-2.0332,-2.0347,-2.0423,-2.0425,-2.0359,-2.0362,-2.0364,-2.0365,0,0,0,0,0,0,0,-2.0194,-2.0202,-2.0293,-2.0264,-2.0264,-2.0256,-2.0261,-2.031,-2.0316,-2.028,-2.0278,-2.0284,-2.0327,-2.0343,-2.0348,-2.0426,-2.0359,-2.0363,-2.0366,-2.0367,-2.0566,-2.0569,0,0,0,0,0,0,-2.019,-2.02,-2.0291,-2.0294,-2.0223,-2.026,-2.0266,-2.0289,-2.0316,-2.0317,-2.0286,-2.0282,-2.0337,-2.0343,-2.035,-2.0439,-2.0364,-2.0368,-2.037,-2.0563,-2.0567,-2.057,0,0,0,0,0,0,-2.0188,-2.0199,-2.0289,-2.0246,-2.0257,-2.0265,-2.0291,-2.0291,-2.0307,-2.032,-2.0321,-2.0302,-2.0335,-2.0344,-2.0403,-2.0441,-2.037,-2.0374,-2.056,-2.0564,-2.0568,-2.0619,0,0,0,0,0,0,-2.0184,-2.0198,-2.0226,-2.0247,-2.026,-2.0341,-2.0294,-2.0294,-2.0315,-2.031,-2.0335,-2.0337,-2.0334,-2.0397,-2.0407,-2.0445,-2.0377,-2.0557,-2.0562,-2.0567,-2.0614,-2.0624,-2.0632,0,0,0,0,0,-2.018,-2.0239,-2.0228,-2.0239,-2.0295,-2.0343,-2.035,-2.0345,-2.0318,-2.0347,-2.0355,-2.0336,-2.0435,-2.0403,-2.0415,-2.0455,-2.0555,-2.0561,-2.0566,-2.0609,-2.0622,-2.0632,0,0,0,0,0,0,-2.0223,-2.0242,-2.0229,-2.0297,-2.0319,-2.0337,-2.0373,-2.0359,-2.0389,-2.0384,-2.0377,-2.0383,-2.0445,-2.0456,-2.042,-2.0529,-2.0491,-2.0499,-2.0519,-2.0531,-2.054,-2.0536,-2.0381,0,0,0,0,0,-2.024,-2.0277,-2.0292,-2.035,-2.0361,-2.0365,-2.0386,-2.0381,-2.0403,-2.0412,-2.0425,-2.0448,-2.0484,-2.0508,-2.0543,-2.0615,-2.062,-2.0649,-2.0658,-2.0666,-2.0673,-2.0712,-2.0725,-2.0589,-2.0589,-2.0589,0,0,-2.0276,-2.0291,-2.0315,-2.0359,-2.0375,-2.0414,-2.0373,-2.0417,-2.0446,-2.0419,-2.0475,-2.0486,-2.0511,-2.0577,-2.0607,-2.0588,-2.0712,-2.0673,-2.0679,-2.0683,-2.072,-2.0733,-2.0744,-2.0593,-2.0592,-2.0592,0,0,-2.0362,-2.0377,-2.0427,-2.0444,-2.0468,-2.0471,-2.0483,-2.0504,-2.0509,-2.0565,-2.0546,-2.0581,-2.0644,-2.0663,-2.0681,-2.0774,-2.0758,-2.0785,-2.0835,-2.0873,-2.0883,-2.0893,-2.0926,-2.0938,-2.0793,-2.0793,-2.0793,0,-2.0404,-2.0461,-2.0454,-2.0499,-2.0518,-2.0496,-2.0546,-2.0564,-2.0599,-2.0613,-2.0592,-2.067,-2.0686,-2.0756,-2.0778,-2.0794,-2.0808,-2.0782,-2.0882,-2.0892,-2.0901,-2.0932,-2.0944,-2.0796,-2.0796,-2.0795,-2.0795,0,-2.0511,-2.0551,-2.0589,-2.0622,-2.0646,-2.0694,-2.0695,-2.072,-2.0713,-2.0718,-2.0775,-2.0794,-2.0831,-2.0847,-2.0841,-2.0917,-2.0904,-2.0883,-2.0844,-2.0917,-2.0946,-2.0958,-2.0801,-2.0799,-2.0799,-2.0798,0,0,-2.0625,-2.0654,-2.0667,-2.0682,-2.0708,-2.0739,-2.0786,-2.0822,-2.0844,-2.0869,-2.0908,-2.0962,-2.0942,-2.0962,-2.0958,-2.0992,-2.1064,-2.0966,-2.0966,-2.0983,-2.1149,-2.1164,-2.1178,-2.1054,-2.1056,-2.1058,-2.1146,0,-2.0711,-2.0791,-2.0786,-2.0862,-2.0899,-2.0878,-2.0919,-2.094,-2.0946,-2.0978,-2.0986,-2.1023,-2.0995,-2.1007,-2.1039,-2.1048,-2.1097,-2.1042,-2.109,-2.1092,-2.1083,-2.1193,-2.121,-2.1292,-2.1158,-2.116,-2.1161,0,-2.0822,-2.085,-2.0929,-2.0949,-2.0965,-2.1001,-2.1033,-2.1065,-2.1088,-2.109,-2.1113,-2.1103,-2.1151,-2.1112,-2.1178,-2.114,-2.116,-2.1168,-2.1171,-2.1174,-2.113,-2.1199,-2.1319,-2.1331,-2.1179,-2.1178,-2.1176,0,-2.0896,-2.0954,-2.1008,-2.1022,-2.1047,-2.1073,-2.1085,-2.1106,-2.1127,-2.1156,-2.117,-2.1205,-2.1224,-2.1251,-2.1251,-2.1222,-2.1318,-2.1278,-2.1321,-2.1321,-2.1341,-2.134,-2.1464,-2.1355,-2.1355,-2.1355,-2.1355,0,-2.0992,-2.1041,-2.1042,-2.1075,-2.113,-2.1124,-2.1179,-2.1188,-2.1207,-2.1242,-2.1227,-2.1261,-2.1259,-2.1294,-2.1294,-2.1349,-2.1358,-2.1361,-2.136,-2.1362,-2.1361,-2.1374,-2.1368,-2.1358,-2.1357,-2.1357,-2.1356,0,-2.1084,-2.1086,-2.1144,-2.1163,-2.1169,-2.1208,-2.1224,-2.1257,-2.1261,-2.1307,-2.1317,-2.1325,-2.1365,-2.1367,-2.1414,-2.1414,-2.148,-2.1474,-2.1472,-2.147,-2.1512,-2.1508,-2.1649,-2.1667,-2.1547,-2.1548,-2.1549,0,-2.1145,-2.1182,-2.1204,-2.1227,-2.124,-2.1276,-2.1298,-2.1294,-2.1318,-2.1347,-2.1376,-2.1414,-2.1445,-2.151,-2.152,-2.1555,-2.1549,-2.1596,-2.1554,-2.1555,-2.1549,-2.1547,-2.155,-2.1604,-2.1605,-2.1607,-2.1607,0,-2.1253,-2.1252,-2.1283,-2.1316,-2.1342,-2.1368,-2.1391,-2.1411,-2.141,-2.1438,-2.1478,-2.1501,-2.1548,-2.1587,-2.1621,-2.1634,-2.1621,-2.1621,-2.1632,-2.1634,-2.1631,-2.1632,-2.1493,-2.1617,-2.1616,-2.1615,-2.1615,-2.1615,-2.133,-2.1362,-2.1382,-2.1418,-2.1436,-2.1458,-2.1489,-2.1498,-2.1531,-2.1568,-2.1564,-2.1609,-2.1632,-2.1677,-2.1693,-2.1728,-2.1712,-2.1729,-2.1733,-2.1737,-2.1741,-2.1626,-2.1734,-2.1734,-2.1734,-2.1734,-2.1733,0,-2.1436,-2.1449,-2.1482,-2.1515,-2.1543,-2.1528,-2.1553,-2.1578,-2.1617,-2.1639,-2.1669,-2.1715,-2.1752,-2.1766,-2.1802,-2.1828,-2.1823,-2.1838,-2.1835,-2.1838,-2.1754,-2.1739,-2.1841,-2.1841,-2.1841,-2.1841,-2.1841,-2.1841,-2.1495,-2.1548,-2.1549,-2.1611,-2.1623,-2.1665,-2.1681,-2.1702,-2.172,-2.1771,-2.1802,-2.181,-2.1829,-2.1867,-2.19,-2.1903,-2.1917,-2.1934,-2.1935,-2.1855,-2.1844,-2.1834,-2.1821,-2.1938,-2.1938,-2.2017,-2.2017,-2.2018]},{"header":{"parameterUnit":"m.s-1","parameterCategory":1,"la1":30.2991,"la2":30.254,"lo1":-89.0895,"lo2":-89.0444,"dy":0.0017,"dx":0.0017,"nx":28,"ny":28,"refTime":"2026-01-04T09:00:00:Z","depth":0,"parameterNumber":3,"parameterNumberName":"V-component_of_WINDS"},"data":[0,0,0,0,0,0,0,0,0,0,0,0,0,0,0,0,0,0,0,0,0,0,0,0,0,0,0,0,0,0,0,0,0,0,0,0,0,0,0,0,0,0,0,0,0,0,0,0,0,0,0,0,0,0,0,0,0,0,-0.3895,-0.3895,0,-0.3897,-0.3897,-0.3897,-0.3898,-0.3898,-0.3898,-0.3898,-0.3901,-0.3902,-0.3902,0,0,0,0,0,0,0,0,0,0,0,0,0,-0.3894,-0.3894,-0.3895,-0.3895,-0.3895,-0.3897,-0.3897,-0.3897,-0.3898,-0.3898,-0.3898,-0.3898,-0.3901,-0.3902,-0.3902,0,0,0,0,0,0,0,0,0,0,0,0,0,-0.3895,-0.3894,-0.3895,-0.3896,-0.3896,-0.3897,-0.3897,-0.3897,-0.3898,-0.3898,-0.3898,-0.3898,-0.3901,-0.3902,-0.3902,-0.3902,0,0,-0.3902,-0.3902,0,0,0,0,0,0,0,0,-0.3895,-0.3895,-0.3896,-0.3896,-0.3896,-0.3898,-0.3898,-0.3899,-0.3898,-0.3898,-0.3898,-0.3898,-0.39,-0.39,-0.3901,-0.3902,-0.3902,-0.3902,-0.3902,-0.3902,-0.3902,0,0,0,0,0,0,0,-0.3895,-0.3895,-0.3896,-0.3896,-0.3896,-0.3897,-0.3897,-0.3898,-0.3899,-0.3898,-0.3898,-0.3898,-0.39,-0.3901,-0.3901,-0.3903,-0.3902,-0.3902,-0.3902,-0.3902,-0.3904,-0.3904,0,0,0,0,0,0,-0.3894,-0.3895,-0.3896,-0.3896,-0.3895,-0.3897,-0.3897,-0.3897,-0.3899,-0.3899,-0.3898,-0.3898,-0.39,-0.3901,-0.3901,-0.3902,-0.3902,-0.3902,-0.3902,-0.3904,-0.3904,-0.3904,0,0,0,0,0,0,-0.3894,-0.3894,-0.3896,-0.3895,-0.3896,-0.3897,-0.3897,-0.3897,-0.3898,-0.3899,-0.3899,-0.3898,-0.3901,-0.3901,-0.3902,-0.3902,-0.3902,-0.3902,-0.3904,-0.3904,-0.3904,-0.3903,0,0,0,0,0,0,-0.3894,-0.3894,-0.3894,-0.3895,-0.3896,-0.3897,-0.3897,-0.3897,-0.3898,-0.3898,-0.3899,-0.39,-0.3901,-0.3902,-0.3902,-0.3902,-0.3902,-0.3904,-0.3904,-0.3904,-0.3903,-0.3903,-0.3903,0,0,0,0,0,-0.3894,-0.3894,-0.3894,-0.3895,-0.3896,-0.3897,-0.3897,-0.3897,-0.3898,-0.3898,-0.3899,-0.39,-0.3902,-0.3902,-0.3902,-0.3902,-0.3904,-0.3904,-0.3904,-0.3903,-0.3903,-0.3903,0,0,0,0,0,0,-0.3894,-0.3895,-0.3895,-0.3895,-0.3896,-0.3897,-0.3897,-0.3897,-0.3898,-0.3898,-0.39,-0.39,-0.3901,-0.3901,-0.3901,-0.3903,-0.3903,-0.3903,-0.3902,-0.3902,-0.3902,-0.3902,-0.3903,0,0,0,0,0,-0.3894,-0.3894,-0.3895,-0.3895,-0.3895,-0.3896,-0.3896,-0.3897,-0.3898,-0.3898,-0.3899,-0.39,-0.3901,-0.3901,-0.3902,-0.3903,-0.3903,-0.3903,-0.3903,-0.3903,-0.3903,-0.3903,-0.3903,-0.3904,-0.3904,-0.3904,0,0,-0.3894,-0.3894,-0.3894,-0.3895,-0.3896,-0.3896,-0.3896,-0.3897,-0.3897,-0.3898,-0.3899,-0.39,-0.3901,-0.3902,-0.3902,-0.3902,-0.3903,-0.3903,-0.3903,-0.3903,-0.3903,-0.3903,-0.3903,-0.3904,-0.3904,-0.3904,0,0,-0.3894,-0.3894,-0.3895,-0.3895,-0.3895,-0.3896,-0.3896,-0.3897,-0.3897,-0.3898,-0.3898,-0.3899,-0.39,-0.3901,-0.3902,-0.3901,-0.3902,-0.3902,-0.3901,-0.3902,-0.3902,-0.3902,-0.3902,-0.3901,-0.3902,-0.3902,-0.3902,0,-0.3894,-0.3895,-0.3895,-0.3895,-0.3895,-0.3896,-0.3896,-0.3896,-0.3897,-0.3898,-0.3898,-0.3899,-0.39,-0.3901,-0.3901,-0.3901,-0.3901,-0.3902,-0.3901,-0.3901,-0.3901,-0.3901,-0.3901,-0.3902,-0.3902,-0.3902,-0.3902,0,-0.3895,-0.3895,-0.3895,-0.3895,-0.3896,-0.3896,-0.3896,-0.3897,-0.3897,-0.3897,-0.3898,-0.3899,-0.39,-0.39,-0.39,-0.3901,-0.3901,-0.3901,-0.3902,-0.3901,-0.3901,-0.3901,-0.3902,-0.3902,-0.3902,-0.3902,0,0,-0.3895,-0.3895,-0.3895,-0.3895,-0.3896,-0.3896,-0.3896,-0.3897,-0.3897,-0.3897,-0.3898,-0.3899,-0.3899,-0.3899,-0.39,-0.39,-0.39,-0.3901,-0.3901,-0.39,-0.39,-0.39,-0.39,-0.39,-0.39,-0.39,-0.39,0,-0.3896,-0.3896,-0.3896,-0.3896,-0.3896,-0.3896,-0.3897,-0.3897,-0.3897,-0.3898,-0.3898,-0.3899,-0.3899,-0.3899,-0.3899,-0.39,-0.39,-0.39,-0.3901,-0.3901,-0.3901,-0.39,-0.39,-0.39,-0.39,-0.39,-0.39,0,-0.3896,-0.3896,-0.3897,-0.3896,-0.3897,-0.3897,-0.3897,-0.3897,-0.3897,-0.3898,-0.3898,-0.3898,-0.3899,-0.3899,-0.3899,-0.3899,-0.39,-0.39,-0.39,-0.39,-0.3901,-0.39,-0.39,-0.39,-0.39,-0.39,-0.39,0,-0.3897,-0.3897,-0.3897,-0.3897,-0.3897,-0.3897,-0.3897,-0.3897,-0.3897,-0.3898,-0.3898,-0.3898,-0.3898,-0.3899,-0.3899,-0.3899,-0.39,-0.39,-0.39,-0.39,-0.3901,-0.3901,-0.39,-0.39,-0.39,-0.39,-0.39,0,-0.3898,-0.3898,-0.3897,-0.3897,-0.3897,-0.3897,-0.3897,-0.3897,-0.3897,-0.3898,-0.3898,-0.3898,-0.3898,-0.3899,-0.3899,-0.3899,-0.39,-0.39,-0.39,-0.39,-0.39,-0.39,-0.3901,-0.39,-0.39,-0.39,-0.39,0,-0.3898,-0.3898,-0.3898,-0.3898,-0.3898,-0.3898,-0.3897,-0.3898,-0.3897,-0.3898,-0.3898,-0.3898,-0.3898,-0.3898,-0.3899,-0.3899,-0.39,-0.39,-0.3899,-0.39,-0.39,-0.39,-0.39,-0.39,-0.39,-0.39,-0.39,0,-0.3899,-0.3899,-0.3898,-0.3898,-0.3898,-0.3898,-0.3898,-0.3898,-0.3898,-0.3898,-0.3898,-0.3898,-0.3898,-0.3899,-0.3899,-0.3899,-0.39,-0.3899,-0.39,-0.3899,-0.39,-0.39,-0.39,-0.39,-0.39,-0.39,-0.39,0,-0.39,-0.39,-0.3899,-0.3899,-0.3899,-0.3898,-0.3898,-0.3898,-0.3898,-0.3898,-0.3898,-0.3898,-0.3898,-0.3898,-0.3899,-0.3899,-0.3899,-0.3899,-0.3899,-0.3899,-0.3899,-0.3899,-0.39,-0.3899,-0.3899,-0.3899,-0.3899,-0.3899,-0.3901,-0.3901,-0.39,-0.39,-0.3899,-0.3899,-0.3899,-0.3899,-0.3899,-0.3898,-0.3898,-0.3898,-0.3898,-0.3899,-0.3899,-0.3899,-0.3899,-0.3899,-0.3899,-0.3899,-0.3899,-0.3899,-0.3899,-0.3899,-0.3899,-0.3899,-0.3899,0,-0.3902,-0.3901,-0.3901,-0.39,-0.39,-0.39,-0.3899,-0.3899,-0.3899,-0.3899,-0.3899,-0.3899,-0.3899,-0.3899,-0.3899,-0.3899,-0.3899,-0.3899,-0.3899,-0.3899,-0.3899,-0.3899,-0.3899,-0.3899,-0.3899,-0.3899,-0.3899,-0.3899,-0.3902,-0.3902,-0.3901,-0.3901,-0.3901,-0.39,-0.39,-0.39,-0.3899,-0.3899,-0.3899,-0.3899,-0.3899,-0.3899,-0.3899,-0.3899,-0.3899,-0.3899,-0.3899,-0.3899,-0.3899,-0.3899,-0.3899,-0.3899,-0.3899,-0.3899,-0.3899,-0.3899]}]]